GW3985 Weather Reports


time (UTC)temp
C
wind
direction
speed
KPH
gust
KPH
rain 1hr
cm
rain 24hr
cm
rain mn
cm
humidity
%
barometer
mb
20260831165016 25 268 0.0 1.6 0.00 0.05 0.00 42 1028.0
20260831164036 24 12 0.0 1.6 0.00 0.05 0.00 43 1027.9
20260831163056 23 12 0.0 1.6 0.00 0.05 0.00 45 1027.9
20260831162038 23 12 0.0 1.6 0.00 0.05 0.00 47 1027.8
20260831161035 23 12 0.0 3.2 0.00 0.05 0.00 50 1027.7
20260831160015 22 41 0.0 3.2 0.00 0.05 0.00 51 1027.8
20260831155015 22 0.0 0.0 0.00 0.05 0.00 50 1027.7
20260831154016 22 141 0.0 1.6 0.00 0.05 0.00 52 1027.7
20260831153016 21 141 0.0 1.6 0.00 0.05 0.00 52 1027.6
20260831152016 21 0.0 0.0 0.00 0.05 0.00 52 1027.6
20260831151017 21 141 0.0 1.6 0.00 0.05 0.00 53 1027.6
20260831150015 21 141 0.0 1.6 0.00 0.05 0.00 54 1027.5
20260831145015 20 143 0.0 3.2 0.00 0.05 0.00 55 1027.4
20260831144015 20 143 0.0 1.6 0.00 0.05 0.00 56 1027.3
20260831143016 20 142 0.0 1.6 0.00 0.05 0.00 57 1027.3
20260831142016 19 142 1.6 3.2 0.00 0.05 0.00 57 1027.3
20260831141017 18 147 1.6 3.2 0.00 0.05 0.00 58 1027.3
20260831140037 18 145 0.0 3.2 0.00 0.05 0.00 59 1027.2
20260831135015 18 133 0.0 3.2 0.00 0.05 0.00 59 1027.0
20260831134015 17 143 0.0 3.2 0.00 0.05 0.00 61 1026.7
20260831133018 17 148 0.0 3.2 0.00 0.05 0.00 61 1026.7
20260831132016 17 136 0.0 3.2 0.00 0.05 0.00 62 1026.7
20260831131036 16 136 0.0 3.2 0.00 0.05 0.00 62 1026.6
20260831125517 16 136 0.0 1.6 0.00 0.05 0.00 62 1026.3
20260831124515 16 136 0.0 1.6 0.00 0.05 0.00 63 1026.2
20260831123535 16 141 0.0 1.6 0.00 0.05 0.00 63 1026.1
20260831122535 16 140 0.0 1.6 0.00 0.05 0.00 63 1026.0
20260831121516 16 142 0.0 3.2 0.00 0.05 0.00 64 1026.0
20260831120516 16 140 0.0 1.6 0.00 0.05 0.00 64 1026.0
20260831115537 16 140 0.0 1.6 0.00 0.05 0.00 64 1025.8
20260831114517 16 146 0.0 3.2 0.00 0.05 0.00 64 1025.8
20260831113535 16 0.0 0.0 0.00 0.05 0.00 64 1025.8
20260831112515 16 137 0.0 1.6 0.00 0.05 0.00 64 1025.7
20260831111515 16 136 1.6 3.2 0.00 0.05 0.00 65 1025.7
20260831110516 16 136 0.0 1.6 0.00 0.05 0.00 65 1025.6
20260831105516 16 136 0.0 1.6 0.00 0.05 0.00 64 1025.5
20260831104517 16 136 0.0 1.6 0.00 0.05 0.00 64 1025.6
20260831103517 16 137 0.0 1.6 0.00 0.05 0.00 64 1025.6
20260831102535 16 137 0.0 3.2 0.00 0.05 0.00 64 1025.5
20260831101515 16 137 0.0 1.6 0.00 0.05 0.00 65 1025.4
20260831100516 16 139 0.0 1.6 0.00 0.05 0.00 65 1025.3
20260831095516 16 139 0.0 1.6 0.00 0.05 0.00 66 1025.3
20260831094536 16 149 1.6 3.2 0.00 0.05 0.00 66 1025.3
20260831093517 16 136 0.0 1.6 0.00 0.05 0.00 66 1025.4
20260831092515 16 148 1.6 4.8 0.00 0.05 0.00 66 1025.2
20260831091515 17 143 0.0 3.2 0.00 0.05 0.00 66 1025.2
20260831090515 17 142 0.0 3.2 0.00 0.05 0.00 65 1025.2
20260831085556 17 142 1.6 6.4 0.00 0.05 0.00 65 1025.1
20260831084516 17 140 1.6 4.8 0.00 0.05 0.00 66 1025.3
20260831083516 16 145 1.6 6.4 0.00 0.05 0.00 66 1025.4
20260831082537 16 140 0.0 3.2 0.00 0.05 0.00 67 1025.5
20260831081515 17 140 0.0 1.6 0.00 0.05 0.00 67 1025.5
20260831080535 17 140 0.0 3.2 0.00 0.05 0.00 67 1025.6
20260831075535 17 140 0.0 3.2 0.00 0.05 0.00 67 1025.8
20260831074516 17 150 0.0 3.2 0.00 0.05 0.00 68 1025.8
20260831073516 17 146 0.0 3.2 0.00 0.05 0.00 67 1025.8
20260831072517 17 141 1.6 4.8 0.00 0.05 0.00 67 1025.7
20260831071517 17 145 0.0 3.2 0.00 0.05 0.00 67 1025.8
20260831070535 17 141 1.6 6.4 0.00 0.05 0.00 67 1026.0
20260831065515 17 141 1.6 4.8 0.00 0.05 0.00 68 1026.2
20260831064515 17 141 1.6 3.2 0.00 0.05 0.00 68 1026.2
20260831063516 17 144 1.6 6.4 0.00 0.05 0.00 68 1026.4
20260831062516 17 139 1.6 6.4 0.00 0.05 0.00 69 1026.4
20260831061537 17 142 3.2 8.0 0.00 0.05 0.00 69 1026.6
20260831060517 17 145 1.6 6.4 0.00 0.05 0.00 69 1026.8
20260831055515 17 144 1.6 4.8 0.00 0.05 0.05 69 1026.8
20260831054515 17 127 0.0 1.6 0.00 0.05 0.05 69 1027.0
20260831053516 17 127 0.0 1.6 0.00 0.05 0.05 69 1026.9
20260831052516 17 0.0 0.0 0.00 0.05 0.05 69 1027.0
20260831051517 17 127 0.0 1.6 0.00 0.05 0.05 69 1026.9
20260831050517 18 125 0.0 1.6 0.00 0.05 0.05 68 1026.8
20260831045537 18 148 1.6 4.8 0.00 0.05 0.05 67 1027.2
20260831044515 18 141 3.2 9.7 0.00 0.05 0.05 68 1026.8
20260831043515 19 136 1.6 6.4 0.00 0.05 0.05 66 1027.2
20260831042516 19 145 1.6 6.4 0.00 0.05 0.05 65 1026.9
20260831041536 19 142 1.6 6.4 0.00 0.05 0.05 66 1026.6
20260831040517 18 142 1.6 4.8 0.00 0.05 0.05 67 1026.2
20260831035517 18 142 1.6 3.2 0.00 0.05 0.05 67 1025.8
20260831034515 18 142 3.2 8.0 0.00 0.05 0.05 70 1025.9
20260831033535 18 132 1.6 4.8 0.00 0.05 0.05 74 1026.0
20260831032516 17 0.0 0.0 0.00 0.05 0.05 77 1026.1
20260831031516 17 145 1.6 3.2 0.00 0.05 0.05 77 1026.5
20260831030516 17 143 1.6 6.4 0.00 0.05 0.05 77 1026.4
20260831025516 17 141 0.0 3.2 0.00 0.05 0.05 78 1026.3
20260831024517 17 141 1.6 8.0 0.00 0.05 0.05 78 1026.1
20260831023535 17 142 0.0 4.8 0.00 0.05 0.05 78 1025.8
20260831022515 17 140 1.6 6.4 0.00 0.05 0.05 78 1025.5
20260831021536 17 136 1.6 4.8 0.00 0.05 0.05 79 1025.3
20260831020536 17 132 0.0 1.6 0.00 0.05 0.05 79 1025.3
20260831015516 17 145 1.6 3.2 0.00 0.05 0.05 77 1025.1
20260831014537 18 142 0.0 3.2 0.00 0.05 0.05 76 1025.1
20260831013517 18 137 0.0 3.2 0.00 0.05 0.05 77 1025.1
20260831012515 18 0.0 0.0 0.00 0.05 0.05 77 1025.1
20260831011515 19 0.0 0.0 0.00 0.05 0.05 75 1025.0
20260831010516 20 0.0 0.0 0.00 0.05 0.05 74 1025.1
20260831005516 20 135 0.0 1.6 0.00 0.05 0.05 70 1025.1
20260831004516 20 135 0.0 1.6 0.00 0.05 0.05 66 1025.3
20260831003637 20 135 0.0 1.6 0.00 0.05 0.05 65 1025.2
20260831002517 20 135 0.0 1.6 0.00 0.05 0.05 65 1025.1
20260831001535 20 136 0.0 4.8 0.00 0.05 0.05 65 1025.3
20260831000515 20 137 0.0 3.2 0.00 0.05 0.05 69 1025.6
20260830235516 19 141 1.6 6.4 0.00 0.05 0.05 69 1025.8
20260830234516 19 137 0.0 4.8 0.00 0.05 0.05 70 1025.9
20260830233517 18 0.0 0.0 0.00 0.05 0.05 72 1025.8
20260830232517 18 110 0.0 1.6 0.00 0.05 0.05 73 1025.8
20260830231514 18 125 0.0 1.6 0.03 0.05 0.05 74 1025.9
20260830230535 18 140 1.6 8.0 0.05 0.13 0.05 75 1026.3
20260830225516 18 132 1.6 4.8 0.05 0.13 0.05 75 1026.5
20260830224516 17 25 0.0 1.6 0.05 0.13 0.05 76 1026.2
20260830223520 17 25 0.0 1.6 0.05 0.13 0.05 76 1026.0
20260830222517 18 0.0 0.0 0.05 0.13 0.05 75 1025.9
20260830221537 18 266 0.0 1.6 0.03 0.10 0.03 71 1025.7
20260830220515 20 75 1.6 6.4 0.00 0.08 0.00 59 1026.1
20260830215515 21 87 1.6 8.0 0.00 0.08 0.00 52 1025.9
20260830214515 22 71 3.2 12.9 0.00 0.08 0.00 50 1025.3
20260830213536 22 78 3.2 12.9 0.00 0.08 0.00 47 1025.2
20260830212516 23 46 3.2 12.9 0.00 0.08 0.00 45 1024.9
20260830211516 26 14 6.4 19.3 0.00 0.08 0.00 43 1024.6
20260830210517 27 0.0 0.0 0.00 0.08 0.00 40 1023.9
20260830205515 27 0.0 0.0 0.00 0.08 0.00 39 1023.5
20260830204515 27 141 0.0 3.2 0.00 0.08 0.00 38 1023.3
20260830203535 27 144 0.0 3.2 0.00 0.08 0.00 39 1023.4
20260830202516 27 139 0.0 3.2 0.00 0.08 0.00 39 1023.4
20260830201516 27 140 0.0 3.2 0.00 0.08 0.00 38 1023.4
20260830200518 27 143 0.0 3.2 0.00 0.08 0.00 39 1023.3
20260830195517 27 0.0 0.0 0.00 0.08 0.00 39 1023.3
20260830194515 26 138 0.0 3.2 0.00 0.08 0.00 42 1023.3
20260830193515 26 147 0.0 1.6 0.00 0.08 0.00 43 1023.6
20260830192536 26 147 0.0 3.2 0.00 0.08 0.00 43 1023.7
20260830191516 26 0.0 0.0 0.00 0.08 0.00 46 1023.7
20260830190516 25 133 0.0 1.6 0.00 0.08 0.00 47 1023.8
20260830185517 25 124 0.0 3.2 0.00 0.08 0.00 46 1023.9
20260830184515 25 125 0.0 3.2 0.00 0.08 0.00 47 1024.0
20260830183515 25 141 0.0 3.2 0.00 0.08 0.00 47 1024.1
20260830182515 25 0.0 0.0 0.00 0.08 0.00 47 1024.3
20260830181516 25 260 0.0 1.6 0.00 0.08 0.00 46 1024.3
20260830180516 24 0.0 0.0 0.00 0.08 0.00 47 1024.5
20260830175536 24 0.0 0.0 0.00 0.08 0.00 49 1024.7
20260830174517 23 0.0 0.0 0.00 0.08 0.00 50 1024.9
20260830173515 23 0.0 0.0 0.00 0.08 0.00 50 1024.9
20260830172515 23 254 0.0 1.6 0.00 0.08 0.00 51 1025.1
20260830171556 23 0.0 0.0 0.00 0.08 0.00 53 1025.2
20260830170536 22 335 0.0 1.6 0.00 0.08 0.00 54 1025.2
20260830165516 22 350 0.0 1.6 0.00 0.08 0.00 55 1025.3